Regional Weather Roundup
Issued by NWS

Home | Current Version | Previous Version | Text Only | Print | Product List | Glossary On
Versions: 1 2 3 4 5 6 7 8 9 10 11 12 13 14 15 16 17 18 19 20 21 22 23 24 25 26 27 28 29 30 31 32 33 34 35 36 37 38 39 40 41 42 43 44 45 46 47 48 49 50
993
ASUS43 KDTX 251110
RWRMI
MICHIGAN HOURLY REGIONAL WEATHER ROUNDUP
NATIONAL WEATHER SERVICE DETROIT/PONTIAC MI
600 AM EST SAT FEB 25 2017

NOTE: "FAIR" INDICATES FEW OR NO CLOUDS BELOW 12,000 FEET WITH NO
SIGNIFICANT WEATHER AND/OR OBSTRUCTION TO VISIBILITY.

MIZ047>049-052>055-059>063-066>070-074>076-081>083-251200-
SOUTHEAST LOWER MICHIGAN

CITY           SKY/WX    TMP DP  RH WIND       PRES   REMARKS
ADRIAN         RAIN      36  33  89 W15G30    29.55R WCI  27
ALMA           CLOUDY    33  30  90 SW14      29.48R WCI  23
ANN ARBOR      CLOUDY    37  32  82 S8        29.51S WCI  31
BAD AXE        CLOUDY    36  32  85 SW10      29.45R WCI  29
CARO           CLEAR     34  29  82 SW12G21   29.45S WCI  25
DETROIT CITY   PTCLDY    39  32  76 SW9       29.52S WCI  33
DETROIT        PTCLDY    37  32  82 S7        29.54R WCI  32
FLINT          PTCLDY    35  29  78 W10       29.49R WCI  27
GROSSE ILE     CLEAR     39  32  76 SW6       29.53R WCI  35
HILLSDALE      CLOUDY    36  32  87 W9G18     29.52R WCI  29
HOWELL         CLOUDY    37  31  81 SW7       29.50S WCI  31

CITY           SKY/WX    TMP DP  RH WIND       PRES   REMARKS
JACKSON        CLOUDY    35  33  92 SW10      29.52R WCI  27
LAMBERTVILLE   CLOUDY    42  35  75 SW13G20   29.55R
LANSING        CLOUDY    35  27  72 W20       29.51R WCI  24
LAPEER         FAIR      36  30  79 W9        29.47F WCI  29
MASON          FLURRIES  35  32  88 SW8       29.51R WCI  29
MONROE         PTCLDY    38  34  84 S5        29.54R WCI  35
MT. CLEMENS    CLOUDY    39  33  78 SW9       29.50S WCI  32
PONTIAC        PTCLDY    36  30  79 SW10      29.47S WCI  28
PORT HOPE        N/A     38  32  79 SW13G28   29.40R WCI  30
PORT HURON     CLOUDY    39  32  75 SW6       29.49S WCI  35
TRI CITIES     CLEAR     34  29  82 SW23G32   29.45R WCI  22
MIDLAND        MOCLDY    34  28  79 SW16G25   29.44R WCI  23
TROY           CLEAR     38  31  73 SW6       29.52S WCI  34
SAGINAW HB     CLEAR     34  28  80 SW20G26   29.45S WCI  22
$$
MIZ043>046-050>051-056>058-064>065-071>073-077>080-251200-
SOUTHWEST LOWER MICHIGAN

CITY           SKY/WX    TMP DP  RH WIND       PRES   REMARKS
BATTLE CREEK   FLURRIES  32  30  92 W15       29.55R WCI  22
BENTON HARBOR  CLOUDY    31  24  75 W16G22    29.61R WCI  20
BIG RAPIDS     CLOUDY    31  28  89 W9        29.44R WCI  23
COLDWATER      CLOUDY    35  32  87 W13G21    29.55R WCI  27
FREMONT        LGT SNOW  29  28  96 W14       29.50R WCI  18
HOLLAND        CLOUDY    30  24  78 W13G20    29.57R WCI  20
GRAND RAPIDS   CLOUDY    30  26  85 W16G22    29.53R WCI  19
IONIA          CLOUDY    31  27  82 W20G25    29.51R WCI  19
KALAMAZOO      LGT SNOW  32  28  85 W18G25    29.56R FOG     WCI  20
LUDINGTON      LGT SNOW  28  27  96 NW14G21   29.49S VSB 3/4 WCI  17
MARSHALL       FLURRIES  35  32  90 W12       29.53R WCI  26
MOUNT PLEASANT CLOUDY    33  30  88 SW14G26   29.44R WCI  23
MUSKEGON       LGT SNOW  29  26  89 W13       29.55R FOG     WCI  19
SOUTH HAVEN    CLOUDY    30  28  93 NW10G18   29.59R WCI  21
$$
MIZ016>042-251200-
NORTHERN LOWER MICHIGAN

CITY           SKY/WX    TMP DP  RH WIND       PRES   REMARKS
ALPENA         CLOUDY    33  33 100 W5        29.34S FOG     WCI  29
BEAVER ISLAND  CLOUDY    24  22  94 NW7       29.42R WCI  15
BELLAIRE       CLOUDY    26  24  94 CALM      29.42S FOG
CADILLAC       LGT SNOW  28  25  90 W9        29.39R WCI  19
CHARLEVOIX     CLOUDY    26  25  97 NW7       29.43S WCI  18
FRANKFORT      LGT SNOW  28  26  94 NW8G17    29.46R WCI  20
GAYLORD        CLOUDY    27  22  81 NW9G17    29.34R WCI  18
GRAYLING       LGT SNOW  29  27  92 W10G17    29.37R WCI  20
HARBOR SPRINGS CLOUDY    25  23  94 CALM      29.39R FOG
HOUGHTON LAKE  LGT SNOW  31  29  92 W13       29.38R FOG     WCI  21
MANISTEE       LGT SNOW  28  27  93 NW14      29.48R FOG     WCI  17
OSCODA         CLOUDY    37  35  90 SW13      29.37R WCI  29
PELLSTON       CLOUDY    24  21  88 NW5       29.38F FOG     WCI  18
ROGERS CITY    CLOUDY    29  28  96 NW5       29.35S FOG     WCI  24
TRAVERSE CITY  LGT SNOW  28  25  88 NW3       29.42F FOG
$$
MIZ007>008-015-251200-
EASTERN UPPER MICHIGAN

CITY           SKY/WX    TMP DP  RH WIND       PRES   REMARKS
KINROSS        LGT SNOW  21  19  93 NW6       29.35F FOG     WCI  14
MACKINAC ISLAN CLOUDY    23  23 100 N7        29.36F FOG     WCI  14
NEWBERRY       CLOUDY    21  20  97 NW6       29.39R FOG     WCI  13
S. S. MARIE    LGT SNOW  22  19  89 N6        29.35F FOG     WCI  14
MUNISING         N/A     23  20  88 N14       29.46S WCI  11
$$
MIZ004>006-011>014-085-251200-
CENTRAL UPPER MICHIGAN

CITY           SKY/WX    TMP DP  RH WIND       PRES   REMARKS
MANISTIQUE     FLURRIES  22  22  98 NW9G16    29.43S WCI  12
ESCANABA       LGT SNOW  21  17  84 NW12G21   29.51R FOG     WCI   9
MENOMINEE      LGT SNOW  19  16  88 NW13G21   29.56R FOG     WCI   6
SAWYER-GWINN   LGT SNOW  18  14  85 NW21G26   29.48S WCI   1
$$
MIZ001>003-009>011-084-251200-
WESTERN UPPER MICHIGAN

CITY           SKY/WX    TMP DP  RH WIND       PRES   REMARKS
IRON MOUNTAIN  LGT SNOW  17  11  77 NW14      29.53R WCI   3
HOUGHTON       CLOUDY    16  10  77 N18       29.57R HAZE    WCI   0
COPPER HARBOR    N/A     21  16  81 NE22G31   29.56S WCI   5
IRONWOOD       LGT SNOW  14  11  87 NW15      29.67S FOG     WCI  -1
$$

ABBREVIATIONS USED IN REMARKS
   TC - TEMPERATURE IN CELSIUS
  WCI - WIND CHILL INDEX
   HX - HEAT INDEX
  VSB - VISIBILITY





USA.gov is the U.S. government's official web portal to all federal, state and local government web resources and services.